Location: Albany
(35.0170°S, 117.8920°E)
Time: 03:44:48
(UTC+08:00)

Vanguard 1 - Pass Details

Date: 02 February 2021
Orbit: 649 x 3833 km, 34.2° (Epoch: 26 February)

Event Time Altitude Azimuth Distance (km) Brightness Sun altitude
Rises 02:25:20 0° 264° (W) 3,996 - -30.4°
Reaches altitude 10° 02:28:34 10° 265° (W) 2,687 - -30.1°
Maximum altitude 02:34:23 73° 349° (N) 756 - -29.4°
Exits shadow 02:37:20 21° 71° (ENE) 1,470 11.1 -29.0°
Drops below altitude 10° 02:38:49 10° 74° (ENE) 2,058 11.9 -28.8°
Sets 02:41:00 0° 75° (ENE) 2,977 12.9 -28.5°
